TimeEDT,TemperatureF,Dew PointF,Humidity,Sea Level PressureIn,VisibilityMPH,Wind Direction,Wind SpeedMPH,Gust SpeedMPH,PrecipitationIn,Events,Conditions,WindDirDegrees,DateUTC
12:51 AM,35.1,33.1,92,29.99,6.0,ENE,18.4,23.0,0.05,Rain,Light Rain,60,2013-03-19 04:51:00
1:51 AM,35.1,32.0,89,29.93,7.0,ENE,17.3,23.0,0.07,Rain,Rain,70,2013-03-19 05:51:00
2:51 AM,35.1,33.1,92,29.89,5.0,ENE,21.9,29.9,0.07,Rain,Rain,60,2013-03-19 06:51:00
3:51 AM,36.0,33.1,89,29.86,8.0,NE,18.4,26.5,0.08,Rain,Light Rain,50,2013-03-19 07:51:00
4:22 AM,35.6,33.8,93,29.84,5.0,NE,16.1,25.3,0.01,Rain,Light Rain,50,2013-03-19 08:22:00
4:51 AM,36.0,33.1,89,29.82,6.0,ENE,18.4,-,0.03,Rain,Light Rain,60,2013-03-19 08:51:00
5:29 AM,35.6,33.8,93,29.80,10.0,NE,16.1,-,0.00,,Overcast,50,2013-03-19 09:29:00
5:51 AM,37.0,34.0,89,29.80,10.0,NE,13.8,-,0.00,,Overcast,40,2013-03-19 09:51:00
6:51 AM,37.0,34.0,89,29.78,10.0,NE,15.0,-,0.00,Rain,Light Rain,50,2013-03-19 10:51:00
7:51 AM,37.0,35.1,93,29.78,10.0,North,11.5,-,0.01,Rain,Light Rain,10,2013-03-19 11:51:00
8:51 AM,37.9,35.1,89,29.76,9.0,NNE,15.0,-,N/A,,Overcast,30,2013-03-19 12:51:00
9:34 AM,37.4,35.6,93,29.75,2.5,NE,12.7,-,0.00,,Light Drizzle,40,2013-03-19 13:34:00
9:51 AM,37.9,36.0,93,29.74,2.5,NE,16.1,-,0.00,,Light Drizzle,40,2013-03-19 13:51:00
10:51 AM,37.9,36.0,93,29.74,2.5,NNE,10.4,20.7,0.00,,Light Drizzle,20,2013-03-19 14:51:00
11:51 AM,37.0,34.0,89,29.77,2.0,NNW,16.1,-,0.06,Rain,Rain,340,2013-03-19 15:51:00
12:02 PM,37.4,33.8,87,29.74,6.0,North,15.0,23.0,0.01,Rain,Light Rain,360,2013-03-19 16:02:00
12:31 PM,37.4,35.6,93,29.74,3.0,North,11.5,-,0.09,Rain,Rain,360,2013-03-19 16:31:00
12:51 PM,37.9,35.1,89,29.75,7.0,NNW,15.0,-,0.14,Rain,Light Rain,330,2013-03-19 16:51:00
1:20 PM,39.2,35.6,87,29.73,10.0,North,11.5,-,0.00,,Mostly Cloudy,350,2013-03-19 17:20:00
1:51 PM,39.9,36.0,86,29.72,10.0,NNW,13.8,-,0.00,,Mostly Cloudy,330,2013-03-19 17:51:00
2:51 PM,41.0,35.1,79,29.70,10.0,NNW,11.5,-,N/A,,Overcast,340,2013-03-19 18:51:00
3:16 PM,41.0,33.8,76,29.72,10.0,NNW,12.7,-,N/A,,Overcast,330,2013-03-19 19:16:00
3:51 PM,41.0,34.0,76,29.72,10.0,NW,13.8,-,N/A,,Overcast,310,2013-03-19 19:51:00
4:40 PM,42.8,33.8,70,29.72,10.0,NW,10.4,-,N/A,,Scattered Clouds,310,2013-03-19 20:40:00
4:51 PM,44.1,34.0,68,29.72,10.0,WNW,12.7,-,N/A,,Scattered Clouds,290,2013-03-19 20:51:00
5:51 PM,44.1,33.1,65,29.73,10.0,NW,6.9,-,N/A,,Partly Cloudy,310,2013-03-19 21:51:00
6:51 PM,42.1,30.9,65,29.73,10.0,NNW,4.6,-,N/A,,Scattered Clouds,340,2013-03-19 22:51:00
7:51 PM,39.9,32.0,73,29.75,10.0,North,5.8,-,N/A,,Scattered Clouds,10,2013-03-19 23:51:00
8:51 PM,39.9,32.0,73,29.75,10.0,West,5.8,-,N/A,,Mostly Cloudy,280,2013-03-20 00:51:00
9:51 PM,42.1,30.0,62,29.78,10.0,NW,20.7,27.6,N/A,,Partly Cloudy,320,2013-03-20 01:51:00
10:51 PM,39.9,25.0,55,29.81,10.0,WNW,17.3,21.9,N/A,,Partly Cloudy,300,2013-03-20 02:51:00
11:51 PM,39.0,26.1,60,29.82,10.0,WNW,15.0,19.6,N/A,,Mostly Cloudy,290,2013-03-20 03:51:00